Regional Weather Roundup
Issued by NWS Kansas City/Pleasant Hill, MO

Home | Current Version | Previous Version | Text Only | Print | Product List | Glossary On
Versions: 1 2 3 4 5 6 7 8 9 10 11 12 13 14 15 16 17 18 19 20 21 22 23 24 25 26 27 28 29 30 31 32 33 34 35 36 37 38 39 40 41 42 43 44 45 46 47 48 49 50
000
ASUS43 KEAX 052004
RWREAX

WEATHER ROUNDUP FOR EASTERN KANSAS AND NORTHWEST MISSOURI
NATIONAL WEATHER SERVICE KANSAS CITY/PLEASANT HILL MO
200 PM CST THU MAR 05 2015

KSZ040-057-103>105-MOZ028-029-037-043-052100-
...KANSAS CITY METROPOLITAN AREA...

CITY           SKY/WX    TMP DP  RH WIND       PRES   REMARKS
K.C. INTL      SUNNY     29   3  33 NW7       30.51  WCI  22
K.C. DOWNTOWN  SUNNY     31   2  29 VRB5      30.53  WCI  26
LEES SUMMIT    SUNNY     29   3  33 CALM      30.52
OLATHE - IXD   SUNNY     28   5  37 MISG      30.52
OLATHE - OJC   SUNNY     30   3  31 VRB3      30.50
LAWRENCE       SUNNY     30   3  31 SE3       30.52

$$

MOZ001>008-011>017-020>025-030>033-038>040-044>046-053-054-052100-
...NORTHERN AND CENTRAL MISSOURI...

CITY           SKY/WX    TMP DP  RH WIND       PRES   REMARKS
ST. JOSEPH     SUNNY     26   1  34 CALM      30.54
MOSBY          CLEAR     28   1  31 CALM      30.54F
WARRENSBURG    SUNNY     30   5  34 NW5       30.54F WCI  25
WHITEMAN AFB   SUNNY     27   5  39 VRB2      30.52
CLINTON        SUNNY     30  12  47 W8        30.55F WCI  23
SEDALIA        SUNNY     26   9  48 N10       30.54  WCI  16
WARSAW         NOT AVBL
MARSHALL       SUNNY     25   9  50 NW5       30.57F WCI  19
CHILLICOTHE      N/A     27   6  41 VRB5      30.54F WCI  22
MOBERLY        SUNNY     27   9  46 CALM      30.54F
KIRKSVILLE     SUNNY     23   2  40 MISG      30.51

$$

MOZ041-047>049-056>058-063>065-088>090-097-052100-
...EASTERN AND SOUTHERN MISSOURI...

CITY           SKY/WX    TMP DP  RH WIND       PRES   REMARKS
ST. LOUIS INTL MOSUNNY   25  10  53 NW10G18   30.54F WCI  15
SPIRIT OF STL  MOSUNNY   25  10  53 NW9       30.54  WCI  15
COLUMBIA       SUNNY     27  11  51 N9        30.52  WCI  18
JEFFERSON CITY SUNNY     27   9  46 W12       30.55  WCI  17
MEXICO         SUNNY     25  12  58 NW8       30.54F WCI  16
ROLLA          SUNNY     27  10  49 N9        30.48  WCI  18
OSAGE BEACH    SUNNY     28   7  40 NW7       30.52F WCI  21
SPRINGFIELD    SUNNY     30  11  45 NW9       30.49  WCI  22
BRANSON        SUNNY     32   9  37 NW13G22   30.50F WCI  22
NEVADA         SUNNY     32   9  37 N8        30.54F WCI  25
JOPLIN         SUNNY     33  14  45 VRB6      30.53  WCI  28
WEST PLAINS    SUNNY     30   6  36 NW16G25   30.48  WCI  19

$$

IAZ060-094-KSZ022-034>040-054-083-096-NEZ052-066-093-052100-
...KANSAS...SOUTHEAST NEBRASKA AND IOWA...

CITY           SKY/WX    TMP DP  RH WIND       PRES   REMARKS
TOPEKA         SUNNY     32   4  30 CALM      30.51
MANHATTAN      SUNNY     37   8  30 S8G16     30.46  WCI  31
EMPORIA        SUNNY     33  13  43 S9        30.47  WCI  25
CHANUTE        SUNNY     36  12  37 CALM      30.50
WICHITA        MOSUNNY   42  16  34 W10       30.44
OMAHA          SUNNY     25   2  37 S10       30.47  WCI  15
LINCOLN        SUNNY     30   4  33 S14       30.44  WCI  19
FALLS CITY     SUNNY     28   0  29 SE6       30.49  WCI  22
LAMONI         SUNNY     21   2  43 W7        30.48  WCI  12
DES MOINES     SUNNY     18  -3  39 VRB5      30.51  WCI  11

$$



USA.gov is the U.S. government's official web portal to all federal, state and local government web resources and services.